Regional Weather Roundup
Issued by NWS Cleveland, OH

Home | Current Version | Previous Version | Graphics & Text | Print | Product List | Glossary On
Versions: 1 2 3 4 5 6 7 8 9 10 11 12 13 14 15 16 17 18 19 20 21 22 23 24 25 26 27 28 29 30 31 32 33 34 35 36 37 38 39 40 41 42 43 44 45 46 47 48 49 50
000
ASUS41 KCLE 290810
RWRCLE
OHIO REGIONAL WEATHER ROUNDUP
NATIONAL WEATHER SERVICE CLEVELAND, OH
400 AM EDT WED JUL 29 2015

NOTE: "FAIR" INDICATES FEW OR NO CLOUDS BELOW 12,000 FEET WITH NO
SIGNIFICANT WEATHER AND/OR OBSTRUCTIONS TO VISIBILITY.

OHZ001>008-015>018-024>027-034-035-043-044-290900-
   NORTHWEST OHIO

CITY           SKY/WX    TMP DP  RH WIND       PRES   REMARKS
DEFIANCE       NOT AVBL
FINDLAY        NOT AVBL
TOLEDO EXPRESS NOT AVBL
TOLEDO EXEC    NOT AVBL
LIMA           CLEAR     70  67  90 CALM      29.97F
$$

OHZ009>014-019>023-028>033-038-089-290900-
   NORTHEAST OHIO

CITY           SKY/WX    TMP DP  RH WIND       PRES   REMARKS
CLE-HOPKINS    PTCLDY    68  62  81 CALM      29.99F
CLE-LAKEFRONT  CLEAR     75  61  61 SE3       29.95F
CUY CO. ARPT   NOT AVBL
LORAIN-ELYRIA  CLEAR     63  61  93 CALM      29.98F
ASHTABULA      CLEAR     64  62  93 CALM      30.00F
AKRON-CANTON   CLEAR     70  64  81 NE6       29.99F
WOOSTER        CLEAR     63  61  93 CALM      29.99F
MANSFIELD      CLEAR     67  66  97 CALM      29.99F
YOUNGSTOWN     PTCLDY    68  63  84 E6        30.00F
$$

OHZ042-051>053-060>062-070>072-077>081-290900-
  SOUTHWEST OHIO

CITY           SKY/WX    TMP DP  RH WIND       PRES   REMARKS
CINC-COVINGTON CLEAR     73  72  96 CALM      29.96F FOG
CINC-LUNKEN    LGT RAIN  72  72 100 CALM      29.95F FOG
HAMILTON       CLEAR     72  70  93 CALM      29.96F FOG
DAYTON         CLEAR     73  71  93 CALM      29.98S
WRIGHT-PAT AFB FOG       72  70  94 CALM      29.96F VSB 1/2
DAYTON GENERAL CLEAR     72  69  90 NE3       29.96F
WILMINGTON     FOG       69  68  96 SW3       29.97F VSB 1/2
$$

OHZ036-037-039>041-045>050-054>059-063>069-073>076-082>088-290900-
  CENTRAL AND SOUTHEAST OHIO

CITY           SKY/WX    TMP DP  RH WIND       PRES   REMARKS
COLUMBUS       PTCLDY    71  69  93 CALM      29.95F
OSU AIRPORT    CLEAR     71  69  93 NE3       29.96F
BOLTON FIELD   CLEAR     70  70 100 CALM      29.97S FOG
RICKENBACK AFB CLEAR     70  69  97 E3        29.95F FOG
NEWARK         CLEAR     69  67  93 CALM      29.96F FOG
MARION         CLEAR     69  65  86 CALM      29.98F FOG
LANCASTER      CLEAR     68  66  93 CALM      29.96F FOG
ZANESVILLE     CLEAR     69  67  93 CALM      29.98S FOG
NEW PHILLY     CLEAR     66  66 100 CALM      29.99S FOG
$$



USA.gov is the U.S. government's official web portal to all federal, state and local government web resources and services.